map of NSI home
NSI - Airport
Location
City:  Yaoundé, Centre, Cameroon
Name:Yaoundé Nsimalen International Airport
ICAO:FKYS
IATA:NSI

Details
Type:Airport (Aerodrome, Airfield)
Use:Public/Civil, International (customs port of entry)
Latitude:3°43'21"N (3.722556)
Longitude:11°33'12"E (11.553269)
Datum:WGS 1984
Elevation:2278 ft (694 m)
Variation:0.56°W (WMM2015 magnetic declination)
0.12° annual change
Runways:1
Longest:11155 × 148 ft (3400 × 45 m), paved

Time
Time Zone:UTC+1
Local Time:

Weather
METAR:FKYS 180400Z /////KT 6000 BKN006 22/21 Q1016 TEMPO 4000 BR
TAF:FKYS 172300Z 1800/1824 VRB03KT 4000 BR BKN006
TEMPO 1803/1808 2000 BR
BECMG 1807/1809 BKN013

Related Locations
Nearby:
Farthest:CIS: 12214 mi / 19657 km
Kanton Island (Canton Island, Abariringa Island) [Canton Island Airport], P, KI

Find:

   beyond  
but within

Other Information
Maps:
NOTAMs:
Links:
Sources:

  
  • flag of Cameroon
  

Sectional Chart

Flight Planning
at skyvector.com

Satellite Image

Google Maps Satellite view

 

Copyright © 2004-2019 Karl L. Swartz. All rights reserved.
The Great Circle Mapper name and logo are trademarks of the Great Circle Mapper.
All other trademarks mentioned herein belong to their respective owners.
Please see credits for attibutions and further copyright information.

  Follow gcmap on Facebook Follow gcmap on Twitter Follow gcmap on Google+ GCmap on LinkedIn

hCard Microformat

Geo Microformat